VLG3908 LEBL-LEPA

Flight info

Callsign VLG3908
Flight time 0h 27m
Altitude 17000
Route LARPA N859 TOLSO
Aircraft A321/M-SDE3FGHIRWY/LB1

Departure

Time 2026-05-05 15:50
Airport Josep Tarradellas Barcelona-El Prat Airport (LEBL)

Arrival

Time 2026-05-05 16:17
Airport Palma de Mallorca Airport (LEPA)
Time Latitude Longitude Altitude Speed Heading
2026-05-05 15:33 41.28980 2.07900 22 ft 0 kts 335°
2026-05-05 15:40 41.28975 2.07903 24 ft 2 kts 335°
2026-05-05 15:40 41.28963 2.07910 24 ft 0 kts 335°
2026-05-05 15:41 41.28952 2.07917 24 ft 2 kts 324°
2026-05-05 15:41 41.28941 2.07931 24 ft 2 kts 311°
2026-05-05 15:41 41.28932 2.07947 24 ft 2 kts 297°
2026-05-05 15:41 41.28927 2.07965 24 ft 2 kts 284°
2026-05-05 15:42 41.28925 2.07985 24 ft 2 kts 270°
2026-05-05 15:42 41.28926 2.08005 24 ft 2 kts 256°
2026-05-05 15:42 41.28929 2.08018 24 ft 0 kts 247°
2026-05-05 15:42 41.28932 2.08026 24 ft 0 kts 245°
2026-05-05 15:44 41.28921 2.07997 24 ft 10 kts 243°
2026-05-05 15:44 41.28876 2.07882 24 ft 16 kts 229°
2026-05-05 15:45 41.28772 2.07899 24 ft 16 kts 155°
2026-05-05 15:45 41.28670 2.07965 24 ft 16 kts 153°
2026-05-05 15:45 41.28629 2.08037 24 ft 10 kts 77°
2026-05-05 15:45 41.28670 2.08165 24 ft 11 kts 66°
2026-05-05 15:46 41.28692 2.08233 24 ft 12 kts 66°
2026-05-05 15:46 41.28728 2.08342 24 ft 13 kts 66°
2026-05-05 15:46 41.28784 2.08503 24 ft 21 kts 64°
2026-05-05 15:46 41.28846 2.08683 24 ft 21 kts 66°
2026-05-05 15:47 41.28905 2.08857 24 ft 20 kts 65°
2026-05-05 15:47 41.28968 2.09043 24 ft 29 kts 65°
2026-05-05 15:47 41.29057 2.09304 24 ft 30 kts 65°
2026-05-05 15:47 41.29142 2.09550 24 ft 28 kts 65°
2026-05-05 15:48 41.29221 2.09780 24 ft 26 kts 66°
2026-05-05 15:48 41.29293 2.09969 24 ft 18 kts 57°
2026-05-05 15:48 41.29311 2.10133 24 ft 18 kts 106°
2026-05-05 15:48 41.29260 2.10279 24 ft 12 kts 132°
2026-05-05 15:49 41.29211 2.10292 24 ft 8 kts 214°
2026-05-05 15:49 41.29170 2.10196 24 ft 25 kts 246°
2026-05-05 15:49 41.28988 2.09667 24 ft 97 kts 246°
2026-05-05 15:49 41.28473 2.08130 33 ft 172 kts 244°
2026-05-05 15:50 41.27944 2.06595 425 ft 186 kts 244°
2026-05-05 15:50 41.27552 2.05629 990 ft 179 kts 230°
2026-05-05 15:50 41.26564 2.04778 1715 ft 170 kts 195°
2026-05-05 15:50 41.25406 2.04418 2095 ft 176 kts 188°
2026-05-05 15:51 41.24157 2.04216 2363 ft 187 kts 182°
2026-05-05 15:51 41.22815 2.04168 2638 ft 200 kts 178°
2026-05-05 15:51 41.21373 2.04317 2943 ft 213 kts 172°
2026-05-05 15:51 41.19894 2.04718 3372 ft 222 kts 165°
2026-05-05 15:52 41.18406 2.05230 3972 ft 223 kts 173°
2026-05-05 15:52 41.16879 2.05087 4669 ft 222 kts 199°
2026-05-05 15:52 41.14940 2.03898 5270 ft 238 kts 206°
2026-05-05 15:52 41.13940 2.03243 5665 ft 243 kts 201°
2026-05-05 15:53 41.12266 2.02963 6017 ft 259 kts 168°
2026-05-05 15:53 41.10537 2.03898 6478 ft 273 kts 152°
2026-05-05 15:53 41.08887 2.05137 7161 ft 277 kts 153°
2026-05-05 15:53 41.07214 2.06371 7869 ft 279 kts 154°
2026-05-05 15:54 41.05497 2.07562 8553 ft 282 kts 155°
2026-05-05 15:54 41.03727 2.08743 9223 ft 285 kts 156°
2026-05-05 15:54 41.01967 2.09896 9848 ft 289 kts 156°
2026-05-05 15:54 41.00131 2.11087 10370 ft 296 kts 156°
2026-05-05 15:55 40.98258 2.12289 10663 ft 311 kts 157°
2026-05-05 15:55 40.96246 2.13577 10965 ft 326 kts 157°
2026-05-05 15:55 40.94159 2.14909 11343 ft 339 kts 158°
2026-05-05 15:55 40.92044 2.16258 11960 ft 341 kts 158°
2026-05-05 15:56 40.89905 2.17620 12610 ft 344 kts 158°
2026-05-05 15:56 40.87730 2.19000 13255 ft 345 kts 159°
2026-05-05 15:56 40.85565 2.20370 13856 ft 348 kts 159°
2026-05-05 15:56 40.83446 2.21712 14424 ft 350 kts 159°
2026-05-05 15:57 40.81240 2.23108 15001 ft 353 kts 159°
2026-05-05 15:57 40.79014 2.24517 15581 ft 356 kts 159°
2026-05-05 15:57 40.76760 2.25944 16157 ft 359 kts 159°
2026-05-05 15:57 40.74492 2.27379 16673 ft 362 kts 160°
2026-05-05 15:58 40.72197 2.28828 16915 ft 364 kts 160°
2026-05-05 15:58 40.69914 2.30269 16945 ft 363 kts 160°
2026-05-05 15:58 40.67645 2.31700 16960 ft 362 kts 160°
2026-05-05 15:58 40.65367 2.33133 16966 ft 360 kts 161°
2026-05-05 15:59 40.63098 2.34404 16943 ft 357 kts 165°
2026-05-05 15:59 40.60766 2.35466 16925 ft 354 kts 169°
2026-05-05 15:59 40.58473 2.36674 16898 ft 364 kts 155°
2026-05-05 15:59 40.56467 2.38793 16912 ft 371 kts 143°
2026-05-05 16:00 40.54603 2.41120 16910 ft 371 kts 142°
2026-05-05 16:00 40.52734 2.43453 16908 ft 370 kts 143°
2026-05-05 16:00 40.50841 2.45749 16907 ft 370 kts 144°
2026-05-05 16:00 40.48915 2.48029 16907 ft 370 kts 144°
2026-05-05 16:01 40.46989 2.50270 16907 ft 370 kts 144°
2026-05-05 16:01 40.45055 2.52499 16908 ft 370 kts 145°
2026-05-05 16:01 40.43115 2.54720 16908 ft 369 kts 145°
2026-05-05 16:01 40.41198 2.56906 16908 ft 369 kts 145°
2026-05-05 16:02 40.39257 2.59113 16908 ft 369 kts 145°
2026-05-05 16:02 40.37301 2.61332 16908 ft 369 kts 145°
2026-05-05 16:02 40.35377 2.63512 16908 ft 369 kts 145°
2026-05-05 16:02 40.33424 2.65724 16906 ft 369 kts 146°
2026-05-05 16:03 40.31465 2.67939 16808 ft 370 kts 146°
2026-05-05 16:03 40.29533 2.70126 16408 ft 368 kts 146°
2026-05-05 16:03 40.27596 2.72319 15997 ft 365 kts 146°
2026-05-05 16:03 40.25679 2.74486 15561 ft 362 kts 146°
2026-05-05 16:04 40.23786 2.76623 15114 ft 361 kts 146°
2026-05-05 16:04 40.21901 2.78749 14666 ft 359 kts 146°
2026-05-05 16:04 40.20011 2.80875 14217 ft 357 kts 145°
2026-05-05 16:04 40.18145 2.82977 13772 ft 355 kts 145°
2026-05-05 16:05 40.16273 2.85089 13315 ft 351 kts 145°
2026-05-05 16:05 40.14437 2.87156 12867 ft 349 kts 145°
2026-05-05 16:05 40.12615 2.89203 12426 ft 346 kts 145°
2026-05-05 16:05 40.10801 2.91237 11985 ft 344 kts 145°
2026-05-05 16:06 40.08973 2.93240 11518 ft 339 kts 149°
2026-05-05 16:06 40.06917 2.94575 11009 ft 326 kts 167°
2026-05-05 16:06 40.04779 2.95358 10680 ft 317 kts 171°
2026-05-05 16:06 40.02672 2.96075 10348 ft 311 kts 170°
2026-05-05 16:07 40.00577 2.96825 10049 ft 304 kts 169°
2026-05-05 16:07 39.98580 2.97578 9789 ft 297 kts 168°
2026-05-05 16:07 39.96617 2.98344 9471 ft 292 kts 168°
2026-05-05 16:07 39.94702 2.99108 9155 ft 286 kts 167°
2026-05-05 16:08 39.92823 2.99863 8831 ft 282 kts 167°
2026-05-05 16:08 39.90950 3.00619 8524 ft 276 kts 167°
2026-05-05 16:08 39.89135 3.01360 8166 ft 273 kts 167°
2026-05-05 16:08 39.87454 3.02043 7805 ft 272 kts 167°
2026-05-05 16:09 39.85651 3.02775 7424 ft 271 kts 166°
2026-05-05 16:09 39.83851 3.03507 7067 ft 270 kts 166°
2026-05-05 16:09 39.82062 3.04235 6723 ft 269 kts 166°
2026-05-05 16:09 39.80291 3.04950 6374 ft 267 kts 166°
2026-05-05 16:10 39.78517 3.05676 6017 ft 266 kts 166°
2026-05-05 16:10 39.76746 3.06399 5662 ft 264 kts 165°
2026-05-05 16:10 39.75012 3.07109 5318 ft 262 kts 165°
2026-05-05 16:10 39.73284 3.07809 4984 ft 260 kts 168°
2026-05-05 16:11 39.71498 3.07886 4598 ft 254 kts 196°
2026-05-05 16:11 39.68179 3.03133 3784 ft 241 kts 240°
2026-05-05 16:12 39.67384 3.01247 3548 ft 236 kts 239°
2026-05-05 16:12 39.65762 2.97691 3113 ft 221 kts 237°
2026-05-05 16:13 39.63462 2.92861 2906 ft 197 kts 237°
2026-05-05 16:13 39.62773 2.91416 2714 ft 185 kts 237°
2026-05-05 16:13 39.62117 2.90036 2465 ft 175 kts 237°
2026-05-05 16:14 39.60923 2.87524 2028 ft 150 kts 237°
2026-05-05 16:14 39.59891 2.85357 1641 ft 138 kts 237°
2026-05-05 16:15 39.58892 2.83248 1299 ft 137 kts 237°
2026-05-05 16:15 39.57912 2.81177 908 ft 136 kts 237°
2026-05-05 16:16 39.56930 2.79108 576 ft 135 kts 238°
2026-05-05 16:16 39.55952 2.77043 230 ft 133 kts 239°
2026-05-05 16:17 39.55011 2.75047 46 ft 104 kts 238°
2026-05-05 16:17 39.54814 2.74527 46 ft 44 kts 257°
2026-05-05 16:18 39.54797 2.74235 46 ft 0 kts 268°
2026-05-05 16:18 39.54873 2.74086 47 ft 14 kts 327°
2026-05-05 16:19 39.54934 2.74037 47 ft 0 kts 328°
2026-05-05 16:19 39.55091 2.73910 47 ft 31 kts 329°
2026-05-05 16:20 39.55176 2.73734 47 ft 7 kts 292°
2026-05-05 16:20 39.55133 2.73602 47 ft 9 kts 237°
2026-05-05 16:21 39.55070 2.73583 47 ft 0 kts 167°